Alexander City, AL

10:10 PM CDT on April 23, 2018 (GMT -0500)
Russell

Weather History for KALX - April, 2013

Change the Weather History Date:

Wednesday, April 3, 2013

  Actual Average (KAUO) Record (KAUO)
Temperature  
Mean Temperature 55 °F -  
Max Temperature 61 °F 73 °F 84 °F (1967)
Min Temperature 49 °F 44 °F 30 °F (1971)
Degree Days  
Heating Degree Days 10    
Growing Degree Days 5 (Base 50)    
Moisture  
Dew Point 37 °F    
Average Humidity 52    
Maximum Humidity 88    
Minimum Humidity 34    
Precipitation  
Precipitation 0.08 in - - ()
Sea Level Pressure  
Sea Level Pressure 30.09 in    
Wind  
Wind Speed 5 mph (ENE)    
Max Wind Speed 13 mph    
Max Gust Speed 20 mph    
Visibility 10 miles    
Events Rain    
Averages and records for this station are not official NWS values.
T = Trace of Precipitation, MM = Missing Value Source: NWS Daily Summary

Daily Weather History Graph

Daily Weather History Graph

Search for Another Location

Airport or City:

Astronomy

Apr. 03, 2013 Rise Set
Actual Time 6:28 AM CDT 7:05 PM CDT
Civil Twilight 6:03 AM CDT 7:30 PM CDT
Nautical Twilight 5:34 AM CDT 7:59 PM CDT
Astronomical Twilight 5:04 AM CDT 8:29 PM CDT
Moon 1:49 AM CDT (4/3) 12:36 PM CDT (4/3)
Length of Visible Light 13h 26m
Length of Day
12h 36m
Last Quarter, 44% of the Moon is Illuminated
Apr 3
Last Quarter
Apr 10
New
Apr 18
First Quarter
Apr 25
Full
May 2
Last Quarter

Hourly Weather History & Observations

Time (CDT) Temp. Dew Point Humidity Pressure Visibility Wind Dir Wind Speed Gust Speed Precip Events Conditions
12:15 AM 57.2 °F 32.2 °F 39% 30.11 in 10.0 mi NNE 5.8 mph - N/A   Clear
12:35 AM 55.2 °F 31.5 °F 40% 30.11 in 10.0 mi NNE 5.8 mph - N/A   Clear
12:55 AM 54.7 °F 31.3 °F 41% 30.11 in 10.0 mi NNE 3.5 mph - N/A   Clear
1:15 AM 54.7 °F 31.6 °F 42% 30.12 in 10.0 mi NNE 3.5 mph - N/A   Clear
1:35 AM 54.7 °F 31.8 °F 42% 30.11 in 10.0 mi NE 3.5 mph - N/A   Clear
1:55 AM 54.7 °F 31.5 °F 41% 30.10 in 10.0 mi NE 3.5 mph - N/A   Clear
2:15 AM 54.7 °F 31.1 °F 41% 30.09 in 10.0 mi ENE 3.5 mph - N/A   Clear
2:35 AM 54.7 °F 32.2 °F 42% 30.08 in 10.0 mi ENE 3.5 mph - N/A   Clear
2:55 AM 53.8 °F 32.0 °F 44% 30.09 in 10.0 mi Calm Calm - N/A   Clear
3:15 AM 52.2 °F 31.8 °F 46% 30.09 in 10.0 mi Calm Calm - N/A   Clear
3:35 AM 52.2 °F 30.2 °F 43% 30.08 in 10.0 mi NE 5.8 mph - N/A   Clear
3:55 AM 52.2 °F 29.3 °F 41% 30.08 in 10.0 mi NE 4.6 mph - N/A   Clear
4:15 AM 52.2 °F 29.3 °F 41% 30.08 in 10.0 mi NE 5.8 mph - N/A   Clear
4:35 AM 52.2 °F 28.9 °F 41% 30.09 in 10.0 mi NE 4.6 mph - N/A   Clear
4:55 AM 52.2 °F 29.3 °F 41% 30.10 in 10.0 mi NE 3.5 mph - N/A   Clear
5:15 AM 50.9 °F 28.4 °F 42% 30.09 in 10.0 mi NE 5.8 mph - N/A   Clear
5:35 AM 50.7 °F 29.1 °F 43% 30.10 in 10.0 mi NNE 3.5 mph - N/A   Clear
5:55 AM 49.6 °F 29.3 °F 46% 30.11 in 10.0 mi NE 4.6 mph - N/A   Clear
6:15 AM 49.6 °F 28.4 °F 44% 30.10 in 10.0 mi NE 4.6 mph - N/A   Clear
6:35 AM 49.6 °F 28.4 °F 44% 30.10 in 10.0 mi NE 3.5 mph - N/A   Clear
6:55 AM 49.6 °F 27.5 °F 42% 30.11 in 10.0 mi NE 4.6 mph - N/A   Clear
7:15 AM 50.9 °F 28.6 °F 42% 30.11 in 10.0 mi ENE 5.8 mph - N/A   Clear
7:35 AM 52.2 °F 28.9 °F 41% 30.13 in 10.0 mi ENE 5.8 mph - N/A   Clear
7:55 AM 52.2 °F 28.4 °F 40% 30.14 in 10.0 mi East 6.9 mph - N/A   Scattered Clouds
8:15 AM 52.2 °F 28.4 °F 40% 30.14 in 10.0 mi NE 6.9 mph - N/A   Scattered Clouds
8:35 AM 54.7 °F 29.8 °F 39% 30.13 in 10.0 mi ENE 8.1 mph - N/A   Clear
8:55 AM 54.7 °F 28.8 °F 37% 30.13 in 10.0 mi NE 5.8 mph - N/A   Clear
9:15 AM 54.7 °F 28.6 °F 37% 30.14 in 10.0 mi NE 6.9 mph - N/A   Clear
9:35 AM 56.7 °F 30.0 °F 36% 30.13 in 10.0 mi NE 8.1 mph - N/A   Clear
9:55 AM 57.2 °F 30.0 °F 36% 30.12 in 10.0 mi ENE 5.8 mph - N/A   Clear
10:15 AM 59.7 °F 31.8 °F 35% 30.12 in 10.0 mi ENE 9.2 mph - N/A   Clear
10:35 AM 59.9 °F 32.2 °F 35% 30.14 in 10.0 mi ENE 8.1 mph - N/A   Clear
11:15 AM 59.9 °F 32.9 °F 36% 30.14 in 10.0 mi East 3.5 mph - N/A   Scattered Clouds
11:35 AM 59.9 °F 32.7 °F 36% 30.13 in 10.0 mi Calm Calm - N/A   Clear
11:55 AM 61.0 °F 32.4 °F 34% 30.12 in 10.0 mi East 6.9 mph - N/A   Clear
12:15 PM 61.0 °F 32.7 °F 35% 30.12 in 10.0 mi East 9.2 mph - N/A   Clear
12:35 PM 61.0 °F 32.7 °F 35% 30.12 in 10.0 mi East 4.6 mph - N/A   Clear
12:55 PM 60.4 °F 35.4 °F 39% 30.13 in 10.0 mi ENE 3.5 mph - N/A Rain Light Rain
1:15 PM 59.9 °F 38.8 °F 46% 30.13 in 10.0 mi ENE 3.5 mph - N/A Rain Light Rain
1:35 PM 59.9 °F 40.1 °F 48% 30.13 in 10.0 mi NE 3.5 mph - N/A   Light Drizzle
1:55 PM 59.9 °F 41.5 °F 51% 30.12 in 10.0 mi ENE 5.8 mph - N/A   Drizzle
2:15 PM 59.9 °F 43.2 °F 54% 30.11 in 10.0 mi ENE 4.6 mph - N/A Rain Rain
2:35 PM 59.9 °F 45.0 °F 58% 30.10 in 10.0 mi ENE 4.6 mph - N/A   Light Drizzle
2:55 PM 59.9 °F 44.1 °F 56% 30.08 in 10.0 mi ENE 5.8 mph - N/A   Scattered Clouds
3:15 PM 59.9 °F 43.9 °F 55% 30.06 in 10.0 mi NE 5.8 mph - N/A   Scattered Clouds
3:35 PM 59.9 °F 43.5 °F 55% 30.03 in 10.0 mi NE 8.1 mph - N/A   Scattered Clouds
3:55 PM 59.9 °F 43.3 °F 54% 30.05 in 10.0 mi ENE 6.9 mph - N/A   Mostly Cloudy
4:15 PM 59.9 °F 43.0 °F 54% 30.04 in 10.0 mi ENE 5.8 mph - N/A   Overcast
4:35 PM 59.9 °F 41.5 °F 51% 30.03 in 10.0 mi ENE 8.1 mph 17.3 mph N/A   Overcast
4:55 PM 59.9 °F 41.9 °F 51% 30.04 in 10.0 mi ENE 3.5 mph - N/A   Mostly Cloudy
5:15 PM 59.9 °F 42.4 °F 52% 30.02 in 10.0 mi NE 5.8 mph 16.1 mph N/A   Overcast
5:35 PM 59.9 °F 43.0 °F 54% 30.03 in 10.0 mi ENE 6.9 mph - N/A   Mostly Cloudy
5:55 PM 59.9 °F 43.3 °F 54% 30.04 in 10.0 mi ENE 6.9 mph - N/A   Mostly Cloudy
6:15 PM 59.9 °F 43.7 °F 55% 30.04 in 10.0 mi ENE 6.9 mph - N/A   Mostly Cloudy
6:35 PM 59.9 °F 44.8 °F 57% 30.05 in 10.0 mi ENE 6.9 mph - N/A   Light Drizzle
6:55 PM 57.2 °F 46.4 °F 67% 30.05 in 10.0 mi ENE 10.4 mph 17.3 mph N/A Rain Light Rain
7:15 PM 57.2 °F 45.9 °F 66% 30.06 in 10.0 mi ENE 10.4 mph 17.3 mph N/A   Mostly Cloudy
7:35 PM 57.2 °F 46.8 °F 68% 30.06 in 10.0 mi ENE 9.2 mph - N/A   Mostly Cloudy
7:55 PM 57.2 °F 47.5 °F 70% 30.07 in 10.0 mi ENE 12.7 mph 17.3 mph N/A   Light Drizzle
8:15 PM 56.5 °F 47.5 °F 72% 30.08 in 10.0 mi ENE 11.5 mph 17.3 mph N/A   Drizzle
8:35 PM 54.7 °F 47.3 °F 76% 30.08 in 10.0 mi ENE 6.9 mph 19.6 mph N/A Rain Light Rain
8:55 PM 54.7 °F 48.6 °F 80% 30.09 in 10.0 mi ENE 10.4 mph - N/A   Light Drizzle
9:15 PM 54.7 °F 48.7 °F 80% 30.09 in 10.0 mi ENE 6.9 mph - N/A Rain Rain
9:35 PM 54.7 °F 49.1 °F 81% 30.09 in 10.0 mi ENE 6.9 mph - N/A   Overcast
9:55 PM 54.7 °F 48.9 °F 81% 30.09 in 10.0 mi ENE 9.2 mph 17.3 mph N/A Rain Rain
10:15 PM 54.7 °F 49.6 °F 83% 30.09 in 7.0 mi East 6.9 mph - N/A   Drizzle
10:35 PM 52.3 °F 48.4 °F 86% 30.09 in 5.0 mi East 6.9 mph - 0.02 in   Heavy Drizzle
10:55 PM 52.2 °F 48.6 °F 88% 30.08 in 7.0 mi ENE 10.4 mph - 0.04 in Rain Heavy Rain
11:15 PM 52.2 °F 48.7 °F 88% 30.07 in 10.0 mi ENE 6.9 mph 16.1 mph 0.02 in Rain Rain
11:35 PM 52.2 °F 48.6 °F 88% 30.07 in 10.0 mi East 8.1 mph 17.3 mph 0.03 in   Light Drizzle
11:55 PM 52.2 °F 48.7 °F 88% 30.06 in 10.0 mi East 8.1 mph - 0.04 in   Light Drizzle